Theta_e
344 340 336 334 333 334 335 336 336 337 336 337 340 341 341 342 341 340 341 343 345 346 346 345 345 347 347 346 346 347 347 347 345 343 343 344 344 344 344 344 344 344 343 344 346 346 345 347 350 351 351 352 352 352 351 350 351 351 350 348 347 348 347 347 348 346 345 346 346 344 343 338 333 331 330 330 333 334 337 341 343 344 345 344 344
346 341 338 336 334 334 334 334 335 335 335 336 339 340 341 341 342 342 343 344 345 346 347 348 348 349 349 349 348 346 346 346 345 344 344 344 344 344 344 344 344 344 344 344 344 344 344 345 348 351 351 351 351 350 349 349 350 350 350 349 348 348 347 347 347 346 345 344 344 343 342 338 332 331 331 332 333 335 338 342 344 344 344 343 343
347 342 340 339 337 335 333 333 334 335 335 336 338 341 341 341 343 344 345 346 347 347 348 349 350 350 350 350 350 349 347 345 344 345 345 345 344 344 344 343 344 345 345 344 344 344 343 344 346 350 351 350 348 348 348 350 350 351 350 350 348 347 347 347 347 347 346 345 344 342 340 337 333 333 335 335 336 338 340 343 344 343 342 342 343
348 344 342 342 341 338 335 334 334 335 335 337 339 341 341 342 343 345 346 348 349 350 349 349 350 351 350 350 351 351 351 348 346 346 347 347 348 348 347 345 344 345 345 345 344 343 344 344 346 349 350 349 347 346 348 350 351 350 350 348 348 347 348 348 347 347 347 346 344 342 340 339 338 338 339 338 338 340 341 343 342 341 341 342 344
349 345 343 344 344 342 340 337 337 337 337 338 340 342 342 342 343 347 349 351 352 352 352 351 352 352 352 351 350 351 352 352 349 347 348 350 351 352 351 350 348 346 346 346 345 344 344 344 345 347 348 348 345 346 349 351 350 348 347 347 348 348 348 348 347 346 346 345 343 342 342 343 343 342 340 339 339 340 341 341 340 340 341 342 344
350 347 345 345 345 344 343 342 341 341 340 339 339 340 342 342 344 348 352 353 353 353 353 353 353 353 352 351 350 350 350 350 348 346 346 349 351 351 351 352 351 350 349 349 349 349 348 347 347 348 349 349 347 347 348 349 349 348 347 346 347 348 348 347 347 346 346 345 344 345 346 347 345 342 339 339 340 340 340 339 339 341 342 342 343
350 348 346 345 345 345 344 344 344 345 344 344 343 342 341 341 343 347 351 353 352 352 353 353 353 353 352 351 351 351 350 349 349 347 347 348 349 349 349 349 349 350 351 351 351 351 350 349 350 351 351 351 350 349 349 350 350 349 348 347 348 348 348 347 347 347 346 346 346 347 347 346 343 340 339 340 341 341 340 340 340 341 343 343 344
350 348 346 345 345 346 345 345 345 346 346 347 348 348 346 344 344 347 350 352 352 352 352 352 353 352 352 351 351 351 351 350 349 349 350 350 349 348 348 348 347 347 349 351 351 351 350 349 351 352 351 352 351 351 351 351 351 350 349 348 348 347 347 346 347 347 347 347 347 347 347 346 342 341 341 341 340 341 341 342 343 344 344 344 344
348 348 348 348 347 346 345 343 343 345 345 346 347 348 349 348 347 348 350 352 352 352 353 352 353 353 352 351 351 352 352 352 350 350 350 350 349 347 347 348 348 347 346 349 352 352 351 351 351 351 351 351 352 352 351 351 350 349 348 347 347 348 348 347 348 348 348 349 348 348 347 346 344 343 343 342 341 342 343 345 345 345 345 343 344
347 348 350 350 349 347 344 343 345 346 347 347 347 346 348 349 349 349 351 351 351 352 353 353 353 352 352 351 351 351 352 352 351 350 350 350 348 346 345 345 347 348 347 348 351 352 352 351 351 351 351 351 351 351 351 350 349 348 347 346 347 347 347 347 348 349 349 349 348 347 346 345 345 345 345 344 344 344 345 346 346 345 345 343 343
347 348 351 352 351 349 347 348 349 349 349 349 348 347 348 349 350 350 350 351 351 351 352 352 352 352 352 352 352 351 351 351 351 351 351 351 350 348 345 343 344 348 349 348 347 350 352 353 352 351 351 352 352 351 350 349 348 347 346 346 346 345 345 346 347 348 349 349 348 348 346 346 346 346 346 345 345 345 345 346 346 345 346 345 344
349 350 351 352 352 351 350 350 350 349 349 349 348 347 347 348 349 350 350 351 351 351 351 350 349 350 350 350 351 351 351 350 350 350 351 351 350 350 348 345 343 347 349 348 346 346 350 352 352 352 351 351 351 351 350 349 348 347 346 347 347 346 345 346 346 347 348 349 348 347 347 347 347 347 347 345 345 345 345 346 346 346 346 346 345
351 351 351 352 351 350 349 349 349 349 349 348 347 347 347 346 347 348 350 351 352 351 350 349 349 349 350 351 351 351 351 350 350 350 351 351 350 350 349 347 347 348 349 350 348 348 350 352 352 351 351 351 350 349 349 349 348 348 348 348 347 347 347 347 347 347 348 348 348 347 347 348 348 348 347 346 345 345 346 346 346 346 346 345 345
350 349 349 349 347 346 346 347 348 349 349 349 348 348 348 346 346 346 349 350 350 350 349 349 349 349 349 351 352 352 351 350 349 349 350 350 350 349 348 348 349 350 349 349 349 349 349 351 352 351 349 349 348 347 347 347 348 348 348 347 346 347 347 348 347 347 347 347 347 347 347 348 349 349 348 346 347 348 348 347 346 346 345 345 346
348 347 347 347 346 344 344 346 347 348 349 349 349 349 349 349 348 348 349 349 350 350 350 349 350 349 348 349 350 351 351 350 349 349 349 349 349 348 348 349 350 351 350 349 349 348 345 346 350 350 348 346 346 346 346 347 347 348 347 347 346 346 345 345 345 345 345 346 346 346 348 348 348 348 347 348 349 349 349 347 346 345 345 345 347
348 349 348 347 347 346 346 347 347 347 348 349 350 349 349 350 350 350 349 348 349 350 351 351 351 350 349 349 350 350 350 349 349 350 349 349 348 347 347 349 351 351 351 350 350 348 346 345 346 348 348 346 345 345 345 345 346 346 345 344 344 343 343 342 342 343 344 345 346 347 348 349 348 347 347 348 349 349 348 346 345 345 345 346 348
351 352 350 349 349 349 349 350 350 349 350 352 352 351 351 351 351 350 350 350 351 351 351 350 351 351 351 350 350 350 350 350 350 350 349 349 348 348 347 349 351 351 351 351 349 347 347 348 347 347 347 347 346 345 345 344 344 343 343 342 341 341 341 341 342 343 344 346 348 349 348 348 347 347 348 348 348 347 346 346 347 347 347 348 348
351 351 350 350 350 350 351 351 352 351 352 353 353 352 353 352 351 351 351 351 351 351 350 350 350 351 351 351 351 350 349 350 350 350 350 349 349 349 349 349 350 351 350 350 350 349 347 348 348 348 347 347 347 346 345 344 344 344 344 344 343 342 343 343 344 345 346 347 349 349 348 347 347 348 348 348 347 346 346 347 347 347 347 347 346
347 348 349 349 349 349 348 349 350 350 350 349 349 349 349 349 349 349 349 348 348 348 349 349 349 350 350 351 351 350 350 350 350 350 350 350 350 349 349 349 349 349 349 349 350 349 346 346 348 349 348 347 346 347 346 346 346 346 346 346 346 345 346 346 346 347 348 348 348 348 347 347 347 347 346 346 345 345 344 345 344 344 343 342 342
342 344 345 346 346 346 344 343 344 345 346 346 346 346 347 347 347 347 348 348 348 348 348 348 348 349 348 348 349 350 350 350 350 350 350 350 350 349 349 349 348 348 348 349 349 348 346 345 348 349 349 348 348 348 348 347 347 347 348 349 348 348 348 348 348 348 347 347 347 345 344 343 344 345 344 344 344 343 344 343 341 339 337 335 333
337 339 339 340 342 343 341 339 339 339 341 342 343 343 343 344 345 345 346 346 347 347 348 347 347 347 346 346 347 347 348 348 349 350 350 350 350 350 349 350 349 349 349 348 348 347 346 346 348 349 350 350 350 350 350 349 349 349 349 349 349 349 349 349 348 348 346 344 342 338 336 338 342 343 343 343 344 342 339 335 330 325 323 323 323
334 335 337 337 338 339 338 337 337 337 338 339 339 341 341 342 343 343 344 344 345 345 345 345 345 345 344 345 345 344 345 345 345 346 346 347 347 348 348 348 349 350 349 349 348 348 347 348 349 350 350 350 350 350 349 349 350 349 348 348 349 350 349 349 347 343 338 334 331 329 333 338 341 342 343 343 341 337 330 325 321 319 317 316 317
332 334 335 335 335 335 335 335 335 336 338 338 339 340 340 341 341 342 342 343 344 344 345 344 345 345 344 344 344 344 344 344 344 343 344 344 344 344 344 345 346 347 348 347 348 347 347 349 350 349 348 349 349 349 348 349 349 349 348 348 349 349 349 348 340 330 323 324 328 332 337 340 342 343 342 339 335 329 326 324 324 322 319 316 317
332 334 334 333 333 333 332 333 333 334 336 338 338 339 339 339 339 340 340 341 341 341 342 342 341 342 341 340 340 340 340 341 341 341 341 341 341 341 342 342 343 344 343 342 343 344 345 348 350 349 348 348 348 348 347 347 347 347 348 349 349 347 344 338 326 317 320 329 335 338 340 341 341 340 337 333 330 328 327 327 326 323 319 317 318
328 331 332 332 333 332 332 332 332 332 333 335 335 336 337 337 337 337 337 337 338 338 338 337 337 337 336 334 334 334 335 335 335 336 337 337 337 337 337 337 337 336 335 334 337 341 343 344 345 345 345 345 345 346 347 346 347 347 345 343 339 333 327 322 317 318 327 335 338 340 341 340 338 335 332 331 330 329 329 328 324 320 318 318 319
317 320 322 325 327 329 330 331 331 331 331 332 332 332 333 334 335 335 335 335 334 334 335 335 335 335 334 332 331 331 331 331 331 331 331 331 332 331 331 331 330 330 329 327 327 330 333 335 338 339 339 339 339 340 345 345 342 337 332 326 322 318 316 319 322 328 335 339 339 340 340 337 334 332 331 331 330 329 328 324 319 317 317 318 319
314 315 316 318 320 322 325 326 326 325 326 328 331 331 329 328 328 331 334 333 331 330 331 332 334 335 335 334 332 332 332 332 332 332 331 330 331 330 330 330 329 329 328 325 319 316 317 321 326 329 331 333 334 336 339 337 330 325 322 321 319 316 320 328 334 336 338 337 335 335 336 334 333 331 331 330 328 326 323 318 314 315 316 316 316
316 316 316 318 319 320 321 322 321 320 321 323 326 327 325 322 321 323 328 331 330 327 325 325 327 331 332 332 332 332 333 332 332 331 331 331 331 331 330 328 325 323 322 320 315 310 308 310 313 316 320 326 329 330 330 328 325 324 325 325 323 322 328 335 339 337 335 331 329 332 333 332 331 330 329 327 325 322 319 316 314 314 315 314 314
318 318 318 319 320 319 319 319 320 321 321 319 319 320 317 315 314 313 317 323 326 325 324 322 323 326 328 328 328 329 330 329 328 326 325 324 323 322 321 317 313 312 312 312 309 306 305 306 308 308 311 316 317 318 322 327 329 329 329 329 329 330 333 337 337 335 333 332 332 332 332 329 328 328 326 325 323 320 317 315 314 314 314 314 313
318 319 319 320 321 321 321 321 322 323 322 320 319 316 311 308 309 309 310 315 319 322 322 321 320 320 320 319 318 318 320 321 320 319 318 314 311 309 308 307 306 305 306 306 306 305 307 311 314 315 316 316 316 319 326 331 333 334 335 335 334 334 335 335 334 334 333 332 331 330 328 327 327 325 324 323 321 318 316 315 315 315 315 314 313
318 320 320 321 322 322 322 323 323 320 317 317 318 315 310 310 312 311 309 310 313 314 314 313 312 312 311 311 310 310 310 310 310 310 309 308 307 306 306 306 306 306 307 307 306 309 315 320 323 325 326 326 327 329 332 334 334 335 335 334 333 332 332 332 331 330 330 329 328 327 327 326 325 324 323 321 319 317 317 316 316 316 315 315 314
314 318 321 322 323 323 323 323 321 316 310 309 311 310 309 313 315 313 310 310 312 312 312 312 312 312 311 311 311 310 310 309 308 308 307 306 306 306 306 306 306 308 312 312 310 314 321 325 326 327 329 330 332 333 333 333 333 333 332 331 329 329 328 328 328 327 327 327 326 326 325 324 323 322 321 320 318 318 317 316 316 316 316 315 315
311 313 316 318 319 319 318 316 314 310 306 304 306 309 312 314 315 315 314 314 314 315 315 316 315 313 312 312 312 312 311 310 309 309 308 307 307 308 308 308 308 311 315 317 315 318 323 326 325 326 327 328 329 330 330 329 329 328 328 328 328 327 326 326 326 325 325 325 324 324 323 322 322 321 320 319 318 318 317 317 317 317 316 316 316
310 311 311 310 310 310 309 307 306 306 305 305 306 310 313 314 314 317 319 319 318 319 319 319 318 315 313 314 315 313 313 312 312 311 311 309 308 308 308 309 312 315 318 319 320 322 324 325 324 325 325 325 326 326 326 326 326 326 326 326 326 325 325 324 324 323 323 323 322 322 321 321 320 320 319 319 318 318 317 317 317 317 317 316 316
311 310 309 309 308 307 307 308 307 307 308 307 307 309 312 312 313 318 322 321 321 322 321 321 320 317 315 317 317 315 314 314 314 314 314 314 313 311 312 315 318 320 321 321 322 323 325 325 324 324 323 324 324 324 324 324 324 324 324 324 324 323 323 323 322 322 322 322 321 321 320 320 319 319 319 318 318 318 317 317 317 316 316 316 316
312 312 311 311 311 311 311 312 312 312 312 311 310 310 312 312 313 316 320 321 321 322 322 321 319 317 317 319 319 318 317 316 315 314 314 315 314 314 315 318 320 321 322 322 322 323 324 325 325 324 324 323 323 323 323 323 323 323 323 323 322 322 322 322 322 322 321 321 321 320 320 320 319 319 319 319 318 318 317 317 316 316 316 316 316
313 314 313 313 313 314 314 314 314 314 314 314 313 312 312 313 313 315 317 319 319 319 319 318 317 317 318 319 319 319 318 317 316 315 314 314 313 312 312 314 317 319 320 321 321 322 323 323 323 323 323 323 323 322 322 322 322 322 322 322 322 322 322 321 321 321 321 320 320 320 319 319 319 319 319 318 318 318 317 317 317 317 316 316 316
313 313 314 314 314 315 315 315 314 314 314 314 314 314 313 314 315 315 315 316 317 318 318 317 318 318 319 319 319 318 317 316 316 315 314 313 312 311 311 312 314 317 319 319 320 320 320 320 321 321 320 320 320 320 320 320 320 320 320 320 320 320 320 320 320 320 320 319 319 319 319 319 319 318 318 318 317 317 317 316 316 316 316 315 315
313 312 313 313 314 315 315 314 314 314 314 314 315 315 315 315 316 316 315 315 316 317 317 317 318 318 318 318 318 317 316 316 315 314 312 311 310 310 311 312 314 316 317 318 318 318 318 319 319 319 319 318 318 318 317 317 317 317 317 317 316 316 316 316 316 316 317 317 317 317 318 318 317 317 316 316 315 315 315 314 314 313 313 313 312
317 314 313 312 313 314 315 315 314 314 314 314 315 315 315 316 316 316 316 316 316 317 317 317 318 318 318 317 316 316 315 315 313 312 311 311 310 310 311 311 312 314 315 315 316 316 316 316 316 316 316 316 316 316 315 315 315 315 314 314 314 313 313 313 312 312 312 312 312 312 313 313 313 313 313 313 312 312 311 311 310 310 310 309 308
321 319 317 315 314 314 315 315 315 315 314 314 314 314 315 316 316 317 317 317 316 316 317 317 316 316 316 316 315 315 314 313 312 311 310 310 310 310 310 311 311 311 312 312 313 313 313 313 313 313 313 313 313 313 313 313 312 312 312 312 312 311 311 311 310 310 310 309 309 309 308 308 308 308 308 308 308 308 307 307 307 306 306 305 304
320 320 320 319 318 316 315 315 315 315 315 314 313 313 314 315 316 317 317 317 315 314 315 315 315 315 315 314 314 313 313 312 311 310 310 310 310 310 309 309 310 310 310 310 310 310 310 310 310 310 309 309 309 309 309 309 309 309 309 309 309 308 308 308 308 308 308 307 307 307 306 306 306 306 305 305 305 304 304 304 303 303 303 302 302
317 318 319 320 320 319 318 316 314 314 315 315 314 313 313 313 315 316 317 316 315 314 314 314 314 313 313 312 312 312 311 311 310 310 310 309 309 309 308 308 308 308 308 308 308 308 307 307 307 307 306 306 306 306 306 306 306 306 306 306 306 305 305 305 305 305 305 305 305 305 305 304 304 303 303 302 302 302 301 301 301 301 301 301 301
317 317 318 319 319 319 318 317 315 315 316 316 315 314 313 314 315 316 316 316 315 314 314 313 313 312 312 311 311 311 311 310 310 310 309 309 308 308 308 307 307 307 307 307 306 306 306 305 305 304 304 304 304 304 304 303 303 303 303 303 303 303 303 303 303 303 302 302 302 302 301 301 300 300 300 300 300 300 300 300 300 300 301 301 301
315 316 316 317 318 318 317 317 316 316 316 317 316 315 315 315 316 316 316 316 315 314 313 313 312 312 312 311 311 311 310 310 309 309 309 308 308 307 307 306 306 306 306 305 305 305 304 304 303 303 302 302 302 301 301 301 301 301 301 301 301 301 301 301 300 300 299 299 299 298 298 298 298 298 298 299 299 299 299 300 300 300 301 301 301
313 313 314 315 317 317 317 316 316 316 316 316 315 315 315 315 315 315 315 314 313 313 312 312 311 311 311 311 310 310 310 309 309 308 308 307 307 306 306 306 305 305 304 304 304 303 303 302 302 301 301 300 300 299 299 299 299 299 300 300 299 299 299 298 298 297 297 297 297 296 296 297 297 298 298 298 298 299 299 299 300 300 301 301 301
313 313 313 315 316 316 316 316 316 315 315 314 314 314 314 314 313 313 313 312 312 311 311 311 311 311 310 310 310 309 309 309 308 307 306 306 305 305 304 304 304 304 303 303 302 302 301 301 300 300 299 298 298 298 298 298 298 299 298 298 298 298 297 297 296 296 295 295 295 295 295 296 297 297 298 298 298 298 299 299 300 301 301 301 301
312 312 313 314 315 315 315 315 315 315 313 312 312 312 312 312 311 311 311 311 311 311 311 310 310 310 309 309 309 309 308 307 307 306 305 305 304 304 303 303 303 302 302 302 301 301 300 300 299 298 297 297 297 297 298 298 298 298 298 297 297 297 296 296 295 295 295 294 294 295 295 296 296 297 297 297 298 298 299 300 300 301 301 301 301
312 312 312 313 314 314 314 313 314 313 312 311 311 312 311 311 311 310 310 310 310 310 310 310 309 309 308 308 307 307 306 306 305 304 304 303 303 303 302 302 302 301 301 300 300 299 299 299 298 297 296 296 296 297 297 297 297 297 297 296 296 296 295 295 295 294 294 294 294 295 295 296 296 297 297 297 298 299 299 300 301 301 301 301 301
312 312 312 312 312 313 312 312 311 311 310 310 310 310 310 311 311 310 310 309 309 309 309 308 308 307 307 306 306 305 305 304 304 304 303 303 302 302 302 301 300 300 299 299 299 298 298 297 296 296 295 295 295 295 296 296 295 295 295 295 295 295 295 294 294 294 294 294 295 295 296 296 296 296 297 297 298 299 300 300 301 301 301 301 301
311 311 311 311 311 311 310 310 310 309 309 309 309 309 309 310 310 309 309 308 308 308 307 307 306 306 305 305 304 304 304 303 303 303 302 302 302 301 300 300 299 299 299 298 298 297 296 296 295 295 294 294 294 294 294 294 294 294 294 294 294 294 294 294 293 294 294 294 295 295 296 296 296 296 297 298 299 300 300 300 300 300 301 301 301
Wind_Speed
25 25 26 27 29 30 29 28 27 25 24 24 23 21 19 18 18 18 18 17 17 17 17 16 15 15 14 14 14 14 14 14 14 14 14 13 13 13 13 13 12 11 10 12 12 13 13 12 11 10 10 10 10 10 10 9 7 5 4 4 3 4 5 7 9 9 6 6 8 9 11 12 12 13 13 12 11 12 12 12 12 14 16 19 20
26 26 26 27 29 30 29 28 27 26 25 24 24 22 20 19 19 19 18 18 18 18 18 17 16 15 15 15 14 14 14 14 14 15 15 14 14 14 13 13 12 11 11 12 12 12 13 12 12 11 12 11 10 10 9 8 7 7 7 6 5 5 6 8 10 11 10 9 9 10 12 14 14 15 15 14 13 14 14 13 13 15 17 19 21
26 26 26 27 27 28 28 28 27 26 26 25 25 23 22 20 19 19 19 18 17 18 18 17 16 15 15 15 14 13 14 14 15 15 15 14 14 14 13 13 12 11 11 11 11 12 13 13 12 12 12 11 9 9 8 7 7 7 7 7 7 6 8 10 11 12 13 13 13 14 14 15 15 16 16 15 14 14 15 15 15 16 17 19 21
26 26 27 26 26 26 27 27 27 27 26 26 25 23 22 21 20 19 18 17 17 17 17 17 15 15 15 14 14 13 14 14 15 15 15 14 13 13 13 13 13 12 11 12 12 12 13 12 12 12 12 12 10 9 9 8 8 8 7 7 8 8 8 9 10 11 13 15 16 16 16 16 17 17 17 16 15 15 15 15 16 16 17 19 21
27 26 26 26 25 25 25 26 26 26 26 26 25 24 22 21 20 19 17 17 16 15 15 15 14 14 15 15 15 15 15 16 15 16 17 15 13 12 13 13 14 13 12 12 13 13 13 13 13 12 12 12 11 11 12 11 11 11 10 9 9 9 9 10 11 13 14 16 17 16 17 18 20 19 18 18 17 17 16 16 16 17 18 19 20
29 28 27 26 25 24 24 24 24 25 25 25 25 25 24 23 22 20 18 17 17 16 16 15 14 15 16 17 17 17 17 17 17 17 18 17 16 15 15 15 15 14 13 13 13 14 14 13 12 12 12 12 12 12 12 12 12 12 12 11 11 11 11 11 12 14 15 16 17 18 19 21 22 21 18 17 19 19 19 19 18 17 19 20 21
30 28 28 27 25 24 24 24 24 24 25 25 25 25 24 24 23 22 19 18 18 18 18 17 16 17 18 18 17 17 18 18 18 18 18 18 18 17 17 17 17 16 14 14 14 15 15 13 12 11 12 12 11 11 11 12 12 12 13 13 14 14 13 13 13 14 16 16 17 19 21 22 21 19 17 17 19 19 21 22 21 19 20 21 22
28 27 28 28 27 26 25 25 25 26 26 26 26 25 25 25 24 23 21 20 19 19 18 17 17 18 19 18 18 18 18 19 20 20 20 20 20 19 19 19 19 18 17 15 15 15 15 14 13 12 13 13 13 12 13 13 13 14 14 14 15 16 15 15 14 14 15 17 18 19 21 20 18 17 17 18 19 19 20 22 23 22 22 22 23
27 26 27 27 27 26 25 25 24 25 26 26 25 25 25 26 26 25 23 22 21 20 19 19 20 20 20 19 19 20 20 20 20 20 21 20 20 20 20 20 21 20 19 18 17 16 17 17 15 14 14 15 14 14 15 15 14 14 13 13 14 15 15 15 14 14 16 18 19 20 19 18 16 17 19 19 20 21 21 21 22 22 23 24 22
27 26 25 25 25 25 25 25 24 22 22 23 22 22 22 23 25 26 25 24 23 22 22 23 23 23 23 21 21 21 22 22 21 21 21 21 21 20 20 21 22 22 21 20 19 18 18 18 17 16 16 16 15 15 16 15 14 14 13 12 12 14 15 16 15 15 18 20 20 20 20 19 18 19 21 20 20 20 20 21 22 22 23 25 23
28 26 25 24 24 24 24 25 24 22 21 21 20 19 20 21 22 23 24 24 24 24 24 24 24 25 25 25 23 22 22 22 22 22 21 21 22 22 21 21 22 23 23 22 21 20 18 19 19 18 18 17 17 17 17 16 14 14 14 13 13 14 16 17 17 17 18 20 21 21 22 22 22 21 21 20 19 20 20 20 21 22 23 25 25
28 26 24 24 24 24 24 25 24 23 22 21 20 19 20 21 21 22 22 23 24 24 24 24 25 26 27 27 27 25 23 22 23 23 23 22 22 23 23 22 22 23 24 24 22 20 18 18 19 19 19 19 18 18 18 17 16 15 14 13 13 14 16 17 17 18 18 20 21 22 23 24 23 22 21 20 21 21 21 20 21 22 22 23 22
26 24 23 24 24 24 24 26 26 25 23 22 21 21 20 20 20 21 22 23 23 24 24 23 24 25 26 28 30 28 24 23 24 24 24 23 24 24 25 24 23 23 23 24 24 21 19 19 20 20 19 19 18 18 18 18 17 16 15 15 15 15 16 16 16 17 19 20 22 22 22 22 23 21 20 21 23 23 23 22 22 22 22 20 19
21 21 23 24 23 20 21 24 26 26 25 25 24 23 22 21 21 22 23 23 23 24 24 24 24 25 26 28 29 29 28 26 24 24 24 24 25 26 26 26 25 24 23 24 24 22 21 21 21 20 19 20 19 19 19 19 18 17 16 16 16 16 16 16 17 19 20 21 21 21 21 21 22 21 20 21 22 22 23 23 22 21 20 19 18
21 20 23 25 22 18 19 22 23 24 26 26 26 25 24 24 24 24 25 25 24 25 25 25 24 24 24 25 27 29 29 27 25 24 24 24 26 27 27 27 27 26 24 24 24 24 22 22 21 21 21 21 21 21 20 20 19 18 18 18 19 19 19 20 20 21 21 21 21 21 20 21 21 22 21 21 21 22 23 22 21 20 19 18 16
22 20 23 26 24 21 22 24 24 26 28 29 29 28 26 26 25 26 27 28 29 27 25 24 23 23 24 24 26 27 26 24 24 25 25 26 27 27 27 28 29 27 26 25 26 26 25 25 24 23 23 24 24 22 22 21 20 20 21 21 21 22 22 21 21 21 21 21 20 20 20 21 21 22 22 22 22 22 22 19 18 17 17 16 16
22 22 24 26 25 24 26 26 26 27 27 28 29 28 28 29 29 30 31 31 30 28 27 26 25 26 26 26 27 28 27 25 25 26 26 27 28 28 27 29 30 30 28 28 28 28 28 29 28 27 27 27 25 23 22 21 21 21 21 22 22 22 22 21 20 20 20 20 19 20 20 20 20 20 21 21 21 20 18 15 14 14 15 16 16
21 22 22 22 22 23 23 24 23 22 22 23 23 24 27 29 30 31 31 29 27 27 27 27 26 26 27 27 28 31 31 29 27 27 27 27 27 28 28 30 31 31 30 30 30 30 30 30 28 27 28 28 26 25 23 22 22 22 22 22 22 21 21 20 19 19 18 19 19 19 20 20 19 20 20 19 18 17 15 13 12 13 14 15 17
17 18 18 18 19 18 16 18 20 19 19 19 17 17 20 22 24 25 26 26 26 25 24 23 22 23 23 24 26 29 30 29 28 28 29 29 29 29 29 30 31 31 31 31 31 30 30 29 27 25 27 28 26 25 24 23 23 22 23 22 22 20 19 19 19 18 17 18 18 19 20 20 19 17 17 16 15 14 13 13 14 14 16 17 18
10 11 12 14 16 16 13 12 13 13 14 15 14 14 15 16 17 18 19 21 22 21 20 20 21 22 22 21 22 24 26 27 28 30 31 31 31 30 30 30 30 30 29 29 29 29 28 27 26 26 27 26 25 24 24 24 24 24 23 22 22 21 19 18 18 17 17 17 18 18 18 17 16 15 14 13 12 12 13 14 16 17 18 18 19
9 9 8 7 9 12 10 6 5 6 7 9 10 10 10 11 13 14 14 16 17 17 17 16 17 19 19 19 20 21 22 22 24 27 28 29 30 31 29 29 30 29 28 28 28 29 28 27 27 29 28 27 26 26 25 25 24 24 23 22 21 20 18 16 16 16 16 16 16 15 14 14 14 14 13 12 11 12 13 14 15 16 18 18 18
7 7 6 6 6 7 6 3 3 3 3 4 4 3 2 4 6 8 9 11 12 12 12 10 10 12 12 13 15 16 15 16 17 19 21 23 26 27 26 25 27 28 29 29 30 31 31 30 29 30 29 28 28 28 27 25 24 23 22 20 19 17 16 15 15 15 15 14 14 13 12 13 14 14 13 12 11 11 10 11 13 16 17 18 18
5 5 5 4 5 5 4 3 1 1 1 1 1 2 3 2 2 3 4 5 6 7 7 6 7 9 9 10 11 11 11 11 11 13 15 16 17 18 18 18 20 23 24 24 26 28 29 30 31 31 29 28 28 28 28 26 23 21 19 18 16 15 15 14 14 14 13 12 12 12 12 13 14 13 12 12 10 10 10 11 15 17 18 18 18
6 5 5 4 4 4 5 5 4 4 4 5 4 4 5 5 4 5 5 4 4 5 5 5 5 6 6 6 6 6 7 8 8 8 10 11 11 10 11 11 13 14 13 10 12 16 19 22 25 25 24 24 25 27 26 24 21 18 15 15 15 15 15 15 14 13 12 12 12 12 13 12 12 11 11 11 10 10 10 14 18 19 18 16 16
6 6 5 4 3 3 3 4 4 4 4 5 5 5 5 5 4 4 4 4 4 4 4 4 4 3 1 0 0 1 1 1 2 2 3 4 4 4 4 4 5 5 4 3 4 7 8 11 14 16 18 19 23 26 26 23 19 16 14 14 15 15 14 14 13 12 11 12 12 12 12 10 10 10 11 11 10 11 13 18 21 19 16 13 13
5 5 4 3 2 1 0 1 2 3 3 3 3 3 4 4 3 3 3 3 4 4 5 5 4 4 3 2 3 4 4 3 3 2 2 1 1 2 3 4 5 5 6 6 5 5 6 7 9 10 12 13 17 24 27 23 17 14 13 13 14 13 13 13 12 11 12 12 11 10 9 9 10 10 10 11 12 14 18 21 21 18 14 11 11
4 4 3 2 2 1 1 1 2 3 3 3 3 2 3 4 3 2 1 2 3 4 4 4 4 3 2 1 1 2 0 1 1 1 1 1 1 3 4 7 8 9 9 9 9 8 8 9 8 8 8 7 8 14 19 18 13 12 13 13 13 13 13 13 12 12 11 10 9 9 10 11 11 10 11 12 15 17 20 20 19 16 14 12 11
2 3 3 3 2 2 2 3 3 4 4 4 3 3 3 3 4 4 3 2 1 2 2 2 1 0 1 2 3 3 5 5 5 6 6 6 7 8 10 11 12 12 12 11 10 10 10 10 9 9 9 8 6 7 8 9 10 12 13 12 12 12 13 13 13 12 12 12 11 11 12 11 11 11 12 13 16 18 19 19 17 14 13 13 12
1 1 2 3 3 3 3 4 4 4 5 4 3 3 5 6 6 6 5 4 4 3 3 4 4 3 4 5 6 8 9 9 9 10 11 12 13 14 15 15 13 13 12 12 10 10 9 9 9 10 9 9 8 7 6 7 9 10 11 10 10 11 12 11 11 11 10 10 11 11 11 10 10 11 12 14 16 18 18 16 14 12 12 12 10
4 3 3 4 4 4 4 5 5 5 5 4 4 4 5 5 4 4 4 4 4 3 3 5 6 7 7 8 10 11 12 12 13 14 14 15 15 15 14 14 12 11 10 10 8 6 6 5 6 6 7 7 7 7 8 9 10 10 10 9 9 9 10 9 9 9 10 10 10 9 8 9 10 11 13 15 17 17 16 14 13 12 12 11 10
7 7 7 6 6 6 6 5 6 8 8 7 7 7 6 4 2 2 1 2 2 2 3 4 5 5 6 6 7 9 10 11 11 12 13 14 14 13 11 10 10 8 7 6 4 3 3 2 1 1 1 2 4 7 9 10 10 11 12 12 11 11 11 11 10 10 9 8 7 7 8 9 11 12 13 15 15 15 14 14 14 14 14 13 12
9 9 10 10 9 9 10 10 11 12 11 10 9 8 6 4 3 2 2 1 1 1 2 2 3 4 4 5 5 6 7 8 8 8 9 9 10 10 8 7 7 6 4 3 1 3 4 3 3 4 4 4 6 9 11 12 13 14 14 15 14 12 11 10 9 7 7 6 6 7 8 10 11 12 13 13 14 14 14 14 14 14 14 14 15
8 9 10 11 11 12 12 13 13 11 9 8 7 6 5 4 3 2 2 2 1 2 2 2 4 5 6 6 5 5 6 7 7 8 8 7 7 7 6 6 6 5 4 4 1 4 5 4 4 5 6 7 8 10 11 12 13 12 12 12 11 9 8 7 6 6 6 6 7 7 8 9 10 11 12 13 14 14 14 14 15 15 16 16 17
9 9 9 9 9 9 9 9 9 7 6 5 5 5 5 4 4 3 2 2 2 3 3 3 5 7 7 6 6 6 6 6 7 8 8 7 6 5 6 6 6 4 4 4 1 2 4 4 4 5 6 6 7 7 7 8 8 7 7 6 6 5 5 5 5 5 6 6 7 8 8 9 10 11 12 13 14 14 15 15 16 16 17 18 19
10 10 9 8 6 6 5 6 6 5 5 5 5 5 6 6 5 4 3 3 4 4 4 4 6 6 6 6 5 5 6 6 6 7 8 8 7 7 6 6 6 4 4 3 2 1 2 3 3 4 4 4 4 4 4 4 4 3 3 3 4 4 5 5 6 6 7 8 9 10 10 11 11 12 12 13 14 15 16 16 17 18 19 20 21
9 9 8 6 6 5 5 5 5 5 5 5 5 6 7 7 6 6 5 5 5 5 5 6 7 6 5 5 4 5 6 6 7 7 7 7 7 7 6 6 6 5 4 4 3 2 2 2 2 2 2 2 2 2 2 2 3 3 4 5 5 6 7 7 8 9 10 10 11 11 12 12 12 13 14 15 16 16 17 17 18 19 20 21 23
9 9 7 6 6 6 6 6 6 6 6 6 7 8 8 8 9 8 7 7 7 6 6 6 6 6 6 5 5 7 8 9 9 10 10 10 9 8 7 7 7 7 6 5 4 4 4 3 3 3 3 3 3 4 4 4 5 5 6 6 7 8 9 9 10 11 11 12 12 12 13 13 14 15 16 17 18 18 19 20 21 22 23 24 26
11 10 9 8 7 7 7 8 7 7 7 8 8 9 9 9 10 9 9 9 8 7 6 6 7 7 7 7 7 9 10 11 11 12 12 12 11 9 8 7 7 7 7 7 6 7 7 6 6 6 6 6 6 6 6 7 7 8 8 9 9 10 11 11 12 12 13 14 14 15 15 16 17 18 19 20 21 21 22 23 24 25 26 27 28
12 12 12 12 11 10 9 9 9 9 9 10 10 10 10 10 11 10 9 9 9 9 8 8 8 8 8 8 9 10 11 11 12 13 13 12 11 9 8 8 7 7 7 7 8 9 9 9 9 9 9 10 10 10 10 10 10 11 11 12 12 12 13 13 14 15 16 16 17 18 19 20 21 22 22 22 23 24 25 26 27 28 29 30 31
13 13 13 14 14 14 14 13 12 12 11 12 12 12 12 13 13 12 11 10 11 10 10 10 9 9 10 10 11 11 12 13 13 12 11 11 10 9 9 9 9 8 8 8 9 10 11 11 12 12 12 13 13 13 14 14 14 14 14 15 15 15 16 16 17 17 18 18 19 20 20 21 22 22 23 23 24 25 26 27 28 29 30 31 31
16 15 15 15 16 17 17 16 16 15 15 14 15 15 15 15 15 14 13 13 12 12 12 12 11 11 11 11 11 13 13 13 13 12 10 9 8 8 9 10 10 10 10 10 11 12 12 13 14 14 15 16 16 17 17 17 17 18 18 18 18 18 18 18 18 18 19 19 20 20 21 21 22 22 23 23 24 25 26 27 28 29 29 29 29
15 16 17 17 18 19 19 19 18 17 17 17 17 17 17 17 17 17 16 15 14 14 14 13 12 12 12 13 13 14 14 13 12 11 10 9 9 9 10 11 11 12 12 12 13 14 14 15 16 17 17 18 19 19 19 19 20 20 20 20 20 19 19 19 19 19 20 20 20 21 22 22 23 24 24 25 26 27 27 27 27 26 25 24 22
14 14 15 16 17 19 20 20 19 18 18 18 18 18 19 19 19 19 18 17 16 15 14 13 13 14 14 15 15 15 14 13 13 12 11 11 11 11 12 12 13 13 13 14 14 15 16 17 18 19 19 20 20 20 20 20 20 20 20 20 19 19 18 18 18 19 20 20 21 22 23 23 24 24 24 24 24 24 23 21 20 18 17 16 14
12 12 12 14 15 17 18 20 20 19 19 18 18 18 19 19 19 19 18 18 17 16 15 14 15 16 16 15 15 14 14 14 14 13 13 14 14 13 14 14 14 14 15 15 16 17 18 19 20 20 20 20 20 20 20 20 20 19 18 17 17 17 16 16 17 17 18 20 21 21 22 22 21 21 20 19 18 16 15 14 13 13 12 11 10
11 11 11 12 14 15 17 18 19 20 20 20 19 19 19 20 21 20 19 18 17 15 14 16 17 17 16 14 14 13 14 14 14 14 14 15 15 15 15 15 15 15 16 16 17 19 20 21 21 21 20 20 20 20 20 19 18 16 15 15 15 15 15 16 17 18 19 20 21 21 20 19 17 16 14 13 12 12 11 11 11 11 10 9 8
12 12 12 12 14 16 18 19 20 20 20 20 19 18 19 20 19 18 17 17 16 15 15 15 16 15 14 14 14 14 14 14 14 14 15 15 15 15 15 15 16 16 17 18 18 19 21 22 22 21 20 20 20 19 18 16 14 13 13 13 14 14 15 17 17 18 19 20 19 19 17 15 13 12 11 10 10 10 10 9 10 9 9 8 8
12 12 12 12 13 16 19 20 20 19 18 17 16 14 15 15 16 15 15 15 14 14 13 13 13 13 14 14 15 15 15 15 15 15 15 15 15 15 15 16 16 17 18 19 20 21 21 22 21 20 20 20 18 16 15 14 13 13 13 13 14 15 16 17 17 18 19 19 18 16 15 12 10 9 9 9 9 10 9 9 9 8 8 8 9
11 11 12 12 12 15 17 18 20 21 20 18 15 14 13 12 12 14 14 14 13 12 12 12 13 15 16 16 16 16 15 15 15 15 15 16 16 16 16 16 17 18 19 20 21 22 22 21 21 21 20 17 14 13 13 12 12 13 13 14 15 16 17 17 18 19 19 18 17 15 13 10 8 8 8 9 9 10 9 9 8 8 8 8 7
10 10 10 10 11 13 14 15 16 17 16 15 15 16 16 14 13 14 14 14 13 14 15 16 16 16 16 16 15 15 15 15 15 15 16 16 17 17 18 18 19 19 20 21 21 21 21 20 21 21 19 15 12 12 13 12 12 13 14 15 16 17 17 19 20 19 19 18 16 13 10 8 8 8 9 9 10 10 10 9 8 8 8 7 5
7 7 7 9 10 12 13 13 13 12 11 10 12 16 18 17 16 16 16 17 17 17 17 17 17 16 15 14 14 14 14 14 15 16 17 17 18 19 19 20 20 21 21 21 20 20 20 21 20 19 15 12 11 12 13 14 15 16 16 17 17 17 18 19 20 19 18 16 13 10 9 8 8 8 9 9 10 10 10 10 9 8 7 6 5
5 6 7 8 9 10 10 11 12 12 12 11 12 14 17 18 18 17 18 19 19 19 17 16 15 15 14 14 14 14 15 16 17 17 18 19 19 20 20 21 21 21 21 21 20 21 21 20 18 15 13 11 11 12 13 14 15 15 16 16 17 18 19 20 19 18 16 14 11 9 9 8 9 9 9 9 9 9 9 9 8 7 6 6 6
Wind_Direction
224 224 224 223 222 221 221 224 227 228 230 234 236 235 233 232 231 232 234 235 235 236 238 239 239 239 241 241 240 240 243 246 249 250 251 254 256 256 256 256 258 260 260 257 254 255 253 247 244 244 244 249 258 265 268 271 270 260 257 265 277 300 305 306 310 314 325 331 330 336 336 331 331 334 332 321 308 305 310 316 320 323 326 328 327
226 224 224 224 223 223 222 223 226 229 231 233 235 235 234 232 232 233 235 235 236 237 238 240 240 240 242 244 244 243 243 247 249 251 251 252 254 256 255 254 256 258 259 258 256 254 254 251 246 245 248 250 255 262 263 266 273 272 268 269 270 282 297 305 307 306 310 317 322 326 329 328 329 334 335 326 315 312 315 317 320 324 327 327 328
227 225 225 225 224 224 223 224 226 229 231 233 235 236 236 235 235 236 236 236 237 237 238 240 242 245 246 245 245 247 248 248 248 249 249 250 254 256 255 253 253 253 252 252 250 251 254 256 253 252 256 259 257 255 252 256 272 279 276 275 276 282 297 303 303 304 308 314 319 323 324 324 325 332 333 326 318 315 317 320 321 324 327 327 330
227 226 226 225 225 225 225 224 226 229 231 232 234 237 237 237 238 238 237 236 235 237 240 242 244 249 251 250 250 253 252 250 247 245 244 244 249 253 255 254 252 250 247 243 242 246 251 254 254 253 257 261 256 245 241 248 261 270 270 270 273 279 289 293 294 298 303 309 315 317 317 318 323 328 326 320 317 317 318 320 320 323 326 327 331
227 227 227 226 226 227 227 226 226 229 232 232 234 237 239 239 238 236 236 236 236 236 239 242 245 249 250 250 250 250 249 247 244 240 236 234 236 242 247 250 251 249 247 243 241 243 247 250 252 250 248 249 245 238 239 249 257 262 264 260 260 266 273 279 286 293 297 304 309 310 312 316 319 321 318 313 314 315 316 318 320 323 324 324 332
226 227 227 227 227 228 229 229 229 231 234 235 236 238 239 239 238 234 235 238 240 238 237 241 247 250 250 248 247 247 248 247 245 242 238 236 238 241 241 242 244 247 249 248 246 246 248 249 250 249 246 245 246 242 243 251 260 266 268 262 257 259 265 274 284 289 292 299 304 306 309 312 312 313 312 309 312 315 316 317 319 322 323 324 332
225 226 227 226 227 228 229 231 232 234 235 236 238 240 241 240 238 235 234 238 244 242 238 239 245 249 250 250 250 250 249 248 247 246 242 242 246 248 246 243 242 242 244 246 247 248 247 245 243 243 242 243 245 244 247 255 263 269 272 267 262 262 268 274 279 284 290 295 299 302 306 308 308 309 309 308 310 312 314 316 318 321 324 326 333
226 228 228 226 226 227 228 230 231 233 234 233 234 236 238 239 239 238 236 238 243 242 239 240 243 247 250 251 251 252 253 253 250 248 247 249 252 253 252 249 246 243 240 238 242 245 242 239 237 234 232 233 237 242 249 256 261 267 272 271 267 264 267 272 275 282 289 292 295 301 305 305 305 307 309 309 310 311 314 318 320 322 323 325 332
225 229 229 228 227 229 231 233 234 236 237 237 235 233 232 234 236 237 235 236 238 239 240 244 246 248 250 251 253 254 257 258 256 253 251 253 257 257 253 250 249 246 241 236 237 240 241 240 239 236 232 233 240 248 252 256 261 268 274 272 265 261 262 268 274 280 285 289 293 300 303 302 304 308 310 312 314 315 317 318 318 319 319 319 326
222 227 228 226 226 227 229 231 234 237 238 237 238 234 229 229 231 234 235 237 236 236 241 247 250 252 253 254 256 258 258 260 260 259 256 257 260 259 254 250 246 244 244 242 239 240 245 247 246 243 241 239 245 252 252 252 257 263 266 264 260 259 262 267 273 277 282 287 291 295 298 300 302 305 309 314 317 316 315 314 313 316 317 316 321
220 223 224 222 221 222 224 227 231 236 237 234 235 233 228 228 230 231 233 236 238 240 244 249 253 255 256 256 256 259 262 263 262 261 259 261 263 260 255 252 247 243 244 245 243 243 249 256 255 252 250 248 249 249 248 249 253 256 258 260 263 265 265 267 270 274 279 283 286 289 294 298 301 305 309 314 315 313 311 310 311 314 317 317 319
221 223 223 223 223 224 225 229 233 235 236 235 237 235 233 236 235 231 232 236 242 247 249 252 255 257 258 258 256 257 262 265 263 261 259 261 264 262 258 255 250 244 243 244 246 245 248 258 261 257 255 255 253 250 250 253 256 257 258 261 267 271 270 268 270 272 275 278 281 287 293 298 301 306 309 310 309 308 306 306 308 311 314 314 316
225 227 227 226 229 229 231 234 234 234 234 235 238 237 236 239 238 236 237 240 245 249 250 249 252 253 255 254 254 256 261 264 263 261 260 262 264 263 260 256 250 244 242 243 245 243 244 253 259 257 254 253 252 250 252 254 255 255 258 263 268 270 269 269 271 273 275 278 283 289 294 297 300 304 306 306 305 304 303 304 307 309 310 309 311
228 232 232 231 229 228 233 235 234 234 235 237 240 240 239 241 241 238 238 239 241 245 248 249 252 254 254 254 254 254 257 259 259 258 259 261 262 262 261 256 248 242 240 239 239 237 238 246 254 255 250 248 247 248 249 251 252 254 259 265 269 271 271 272 274 276 279 282 286 290 294 295 297 299 301 301 302 302 302 306 308 307 305 304 307
227 229 231 231 227 223 229 233 232 233 237 240 242 241 240 242 241 239 240 241 243 247 249 252 255 255 255 254 252 251 250 252 255 257 258 259 259 260 261 256 247 243 243 243 242 239 238 241 245 248 249 248 248 248 248 249 251 254 259 264 268 271 273 274 276 278 280 283 285 288 290 291 292 296 297 297 296 297 299 304 305 302 300 300 303
219 219 223 227 226 223 227 230 232 235 239 241 241 242 243 244 245 247 249 248 248 250 251 253 255 255 254 252 251 253 253 253 255 257 258 258 258 258 259 254 249 248 249 249 249 248 248 245 239 239 247 251 250 251 252 253 255 259 263 267 270 271 272 274 275 277 280 282 284 286 287 289 292 294 293 292 293 296 301 303 299 294 293 295 296
208 208 213 218 221 223 225 228 232 235 239 240 240 242 245 247 249 252 253 252 252 253 255 258 259 258 257 255 254 258 260 256 253 253 253 254 255 254 254 252 251 253 254 254 255 254 254 252 244 238 244 249 250 251 253 255 259 263 267 271 272 273 273 274 275 277 280 283 284 285 286 288 289 289 288 290 294 298 302 301 292 289 290 291 293
195 199 206 212 215 220 224 229 234 238 241 244 244 244 246 250 252 251 252 254 256 257 259 262 262 261 260 258 256 258 258 252 247 248 250 250 250 250 249 250 252 255 257 259 261 258 254 254 250 244 243 245 245 247 250 253 258 264 271 275 275 274 273 274 276 279 282 283 283 283 284 283 283 282 284 287 290 293 295 293 289 290 292 295 300
199 206 215 222 225 229 233 237 241 245 248 250 252 248 246 248 250 250 251 254 257 259 260 261 263 264 263 258 251 250 249 244 242 246 248 249 249 248 248 249 252 256 259 262 263 259 250 247 245 241 239 241 241 242 246 252 258 266 274 276 273 271 270 272 275 277 277 277 276 277 278 279 278 277 276 277 279 282 286 290 294 297 300 303 305
184 198 212 223 231 237 241 239 239 242 247 249 249 246 243 246 250 252 253 255 257 259 258 258 261 262 260 253 246 242 241 240 241 244 244 245 247 248 248 249 251 254 257 259 259 253 245 243 243 240 238 239 242 246 250 256 262 269 274 274 270 269 270 271 272 272 270 269 270 270 271 269 265 262 261 263 270 279 286 293 298 301 303 304 305
125 135 151 172 201 218 225 226 228 232 239 246 248 247 247 251 256 259 259 260 261 261 262 261 261 260 257 252 249 248 246 245 246 247 247 247 248 249 248 248 249 250 252 253 252 248 245 243 243 240 239 240 244 249 254 258 264 268 271 271 270 270 270 269 269 269 267 266 266 263 256 249 246 246 250 259 271 283 292 299 305 308 307 306 303
115 126 134 138 157 184 201 219 245 246 246 256 261 251 237 246 257 260 259 259 260 260 260 256 247 245 246 246 246 248 249 251 254 258 259 257 255 255 256 255 252 251 247 243 243 245 244 241 240 238 240 244 247 249 253 257 260 265 267 269 268 266 265 264 264 263 261 257 253 245 236 233 236 241 252 264 274 283 292 305 318 322 319 313 307
118 127 132 134 140 148 155 163 169 126 104 92 65 77 90 118 182 193 203 216 222 224 223 213 215 229 240 243 244 245 249 256 262 263 264 263 262 264 267 266 261 257 250 240 236 234 230 230 234 237 240 245 249 252 254 256 257 261 264 264 262 260 259 256 254 252 248 240 233 226 224 228 234 243 255 264 271 278 288 308 323 327 323 314 305
138 144 140 134 131 126 122 124 118 103 98 93 86 85 89 101 126 142 151 161 174 186 187 183 198 224 244 253 254 250 249 255 259 256 258 266 272 274 274 273 270 269 270 260 243 232 220 219 229 237 243 250 256 258 258 256 254 254 256 256 254 252 250 247 244 241 234 224 220 222 225 230 237 247 257 266 276 285 298 314 322 322 318 308 299
154 169 173 165 149 128 119 117 102 89 88 86 84 90 94 97 109 119 122 125 133 138 133 126 131 142 157 244 267 190 190 210 235 244 251 268 286 294 287 288 291 294 311 326 270 252 243 236 240 247 254 259 263 263 258 252 248 246 243 243 245 244 242 240 236 227 219 217 220 224 229 236 247 257 268 279 291 300 311 317 318 315 309 300 292
167 182 192 199 204 202 83 77 58 45 40 41 45 62 74 75 78 95 96 81 73 73 75 74 76 80 81 89 105 110 102 90 85 81 82 83 48 32 6 346 347 343 340 338 313 287 277 265 254 254 259 265 268 259 247 235 229 230 228 228 234 236 235 234 228 213 207 211 219 227 238 251 259 267 278 290 302 310 316 319 317 312 305 297 289
176 188 195 207 223 273 332 350 5 4 358 358 358 14 37 40 30 23 49 79 59 50 48 48 47 45 41 58 115 131 124 329 317 309 314 302 321 340 333 327 325 321 320 320 313 299 285 273 263 256 256 262 264 248 232 215 207 217 224 227 232 230 225 222 216 207 209 222 236 248 258 261 263 271 284 298 309 317 320 320 317 310 306 306 302
182 194 203 216 235 267 289 306 323 328 330 328 315 311 326 329 323 317 290 248 275 343 353 354 353 344 290 284 286 283 283 288 293 294 293 294 299 307 309 311 311 306 302 301 299 294 288 283 278 271 263 258 255 244 226 213 216 227 232 235 233 225 216 212 212 218 234 247 249 246 247 252 261 278 295 307 315 319 321 320 317 312 313 316 316
333 248 219 235 260 277 290 307 319 328 337 340 323 310 317 314 302 292 273 256 264 288 298 293 289 290 291 291 291 290 288 291 296 298 297 297 302 307 308 307 305 300 293 291 291 290 289 289 286 282 277 273 271 263 246 234 229 227 226 226 222 214 209 209 215 223 230 231 227 228 238 254 274 292 305 313 317 320 323 323 321 322 327 330 331
321 310 293 287 290 292 300 311 315 321 332 339 332 327 333 332 315 293 273 263 267 276 283 290 294 295 295 294 291 288 287 289 293 295 296 296 300 307 310 307 303 298 290 286 284 280 281 287 288 286 283 278 264 240 224 221 218 211 202 196 193 192 191 195 201 205 204 206 215 231 252 273 291 304 312 318 322 325 328 328 328 332 337 342 347
304 304 302 300 295 292 293 296 306 315 317 315 317 326 339 353 357 346 327 293 283 291 296 297 300 303 305 304 300 295 294 296 298 301 301 298 298 302 307 307 305 300 294 289 275 233 222 240 266 305 299 252 210 194 192 193 190 182 174 168 167 173 181 186 191 196 203 213 228 251 273 291 304 312 318 323 326 326 325 325 327 331 337 341 345
282 283 286 288 289 291 293 296 303 311 313 311 313 322 335 349 353 6 29 32 11 9 2 348 346 348 346 341 337 331 328 329 331 331 327 320 311 308 309 313 315 313 315 318 268 169 165 157 126 101 98 120 142 150 156 159 159 160 163 165 167 172 182 190 196 205 222 239 257 276 292 303 311 316 319 320 320 318 318 319 321 325 330 333 333
279 270 268 271 276 282 288 291 294 299 305 308 309 314 323 331 333 349 11 9 16 39 43 33 10 4 5 4 3 3 0 359 3 6 1 353 343 334 331 331 329 326 330 331 303 164 156 146 127 110 104 112 125 135 143 148 151 157 165 172 176 182 191 203 217 234 254 272 286 297 305 309 310 310 310 311 312 313 314 315 316 318 320 322 323
288 278 273 273 274 273 276 280 282 283 289 294 292 291 296 300 298 293 305 329 342 349 357 4 359 1 9 15 11 8 7 10 18 21 16 9 5 0 354 346 340 331 322 323 329 149 152 151 139 123 113 115 125 135 143 147 153 162 174 186 197 208 220 237 255 269 282 293 299 301 303 302 300 301 303 305 308 310 309 309 309 310 312 314 316
280 279 282 287 287 276 270 274 277 277 282 283 278 278 282 284 281 274 277 299 316 318 321 330 338 346 0 15 14 3 358 0 9 15 15 15 14 7 352 337 329 319 305 306 312 179 175 168 151 137 128 127 132 142 152 161 172 188 208 225 238 250 261 269 277 283 289 293 295 296 297 297 296 298 300 302 303 303 302 302 303 304 307 309 310
276 277 282 285 287 279 271 270 269 267 270 271 266 267 272 273 273 271 272 280 289 296 303 310 315 323 339 356 353 338 332 337 344 348 352 357 357 349 330 311 305 303 297 293 291 265 235 219 202 191 180 178 186 196 204 216 225 236 248 256 263 270 276 280 284 287 289 290 291 293 294 295 296 297 300 301 301 300 299 299 301 302 304 306 307
279 278 277 277 282 278 269 265 263 261 263 262 257 257 261 263 266 268 268 269 273 280 286 289 291 301 315 323 319 313 315 320 325 329 333 336 336 331 316 297 290 292 292 290 291 292 291 288 284 279 274 270 267 266 265 266 266 267 269 270 272 275 279 282 285 287 288 289 290 290 291 293 295 298 300 300 299 297 298 299 299 300 302 303 305
274 273 269 268 271 266 256 256 260 263 268 269 264 261 258 256 257 262 265 268 272 277 276 272 274 285 296 300 300 302 305 311 317 324 331 335 336 334 327 310 293 286 284 285 288 291 295 297 297 295 294 291 289 286 283 281 280 280 280 281 283 284 286 287 288 289 289 289 289 290 292 293 294 295 295 295 294 294 295 295 296 297 297 299 300
265 264 263 264 267 264 256 252 253 259 267 271 269 266 262 257 257 260 262 264 268 271 271 269 268 273 279 284 289 294 299 307 317 326 334 339 340 337 329 317 304 294 290 289 290 290 292 293 294 294 294 294 294 294 293 293 292 292 292 292 293 293 294 293 291 290 289 288 288 288 288 288 289 289 290 290 290 291 291 292 293 294 295 296 299
264 258 255 257 261 262 261 258 255 256 260 263 263 264 263 262 265 268 267 265 266 269 271 269 267 267 269 274 281 290 299 310 321 330 338 343 339 332 326 321 316 310 304 300 297 295 294 295 296 297 297 297 297 298 298 298 298 297 296 296 295 295 294 293 291 290 289 288 288 287 286 285 285 285 285 286 287 288 290 291 292 294 296 299 301
266 262 258 256 256 256 259 260 261 261 262 262 261 261 261 260 263 267 269 270 270 273 274 271 267 265 267 272 281 290 298 309 320 328 335 338 334 327 323 321 319 316 313 310 307 304 303 302 302 302 303 303 302 302 301 301 301 300 299 298 297 296 295 294 292 292 291 289 288 288 287 286 286 286 287 289 290 292 293 295 296 298 300 301 302
267 267 266 265 262 261 261 262 262 263 265 263 262 262 262 262 264 266 268 271 274 275 273 269 264 264 269 276 285 292 299 308 317 322 326 328 327 324 321 318 315 314 313 311 310 310 309 310 310 309 308 307 306 305 304 303 302 301 300 300 299 298 297 296 295 294 293 292 291 290 289 289 291 293 294 295 295 296 296 297 297 297 297 297 298
272 271 271 271 270 267 264 260 257 257 260 261 262 262 262 261 261 263 265 270 275 275 271 265 266 272 277 281 286 290 297 305 311 314 317 318 319 319 318 315 313 312 311 312 313 313 313 314 313 312 310 308 307 306 305 304 303 301 300 298 298 297 296 295 293 292 291 290 290 290 291 292 294 295 294 293 293 293 294 295 295 295 295 297 301
267 268 269 270 271 269 264 259 256 255 257 258 258 258 256 256 256 257 260 266 269 268 265 267 272 277 278 279 282 287 292 297 301 306 310 313 314 314 313 312 311 311 311 312 313 314 315 316 315 314 312 310 308 306 306 304 303 300 298 296 295 294 293 292 291 289 288 289 290 292 295 297 297 297 296 294 294 295 297 299 300 302 306 309 315
264 266 266 267 269 270 264 257 255 257 259 259 256 253 253 252 251 251 253 257 258 259 262 267 269 269 269 271 276 281 286 290 294 299 303 305 305 306 306 306 306 307 308 310 312 314 315 316 315 314 313 311 309 308 307 305 302 298 296 295 294 293 293 293 293 294 296 298 301 303 305 307 307 306 304 303 302 304 307 308 309 313 316 318 323
278 278 275 271 273 272 267 261 260 262 261 256 251 248 248 250 251 251 252 254 256 259 261 259 258 258 261 265 269 273 278 283 288 292 294 296 296 297 298 299 301 304 306 309 312 313 314 314 313 313 313 312 311 310 308 304 300 297 298 298 298 298 299 300 302 304 306 308 310 311 312 314 314 311 309 308 308 308 309 310 311 313 316 318 320
279 278 275 273 273 273 269 266 264 258 245 234 233 241 248 253 259 261 260 259 261 262 257 253 256 261 263 264 267 270 275 279 283 287 289 290 291 292 293 295 299 302 305 308 310 312 313 312 311 312 313 313 310 308 305 301 297 297 299 301 302 303 305 307 309 310 311 312 314 316 316 315 314 311 308 307 305 304 306 308 309 311 314 316 319
275 275 274 275 278 277 272 267 263 257 249 241 244 253 256 255 257 257 255 254 256 255 255 260 266 266 265 265 267 270 274 278 281 285 288 289 290 292 294 297 300 302 304 306 308 309 309 308 309 312 315 312 305 299 297 295 294 297 300 303 304 307 309 310 310 311 312 315 317 317 316 314 314 310 306 305 304 305 308 309 310 314 317 319 323
279 280 282 285 288 287 282 273 269 269 267 261 256 257 257 256 255 253 251 250 251 254 260 267 269 265 263 264 266 268 273 277 281 285 287 289 291 293 295 298 301 303 305 306 306 306 307 307 309 313 314 307 295 290 290 291 293 296 298 299 302 305 307 308 309 312 316 318 319 319 317 315 313 309 307 307 309 310 311 312 313 316 321 325 338
291 296 301 303 300 294 287 277 269 267 269 264 256 257 259 260 257 253 252 255 258 260 261 262 261 258 259 263 267 271 276 280 285 288 290 291 292 294 296 299 302 304 305 306 306 305 305 306 308 310 309 301 292 287 286 287 289 293 295 299 302 304 305 306 309 313 317 318 320 321 319 314 310 308 309 312 313 314 315 315 316 319 326 335 347
311 312 310 307 303 297 289 277 266 264 269 272 269 265 262 260 259 258 258 259 261 262 260 258 256 257 261 267 271 276 281 284 287 289 289 290 291 294 296 299 302 303 303 304 304 304 304 304 303 302 300 296 292 290 290 291 291 292 294 297 300 301 303 306 310 315 318 320 322 323 318 313 311 312 313 320 325 329 329 327 323 320 322 326 329